DW1107 Weather Reports


time (UTC)temp
C
wind
direction
speed
KPH
gust
KPH
rain 1hr
cm
rain 24hr
cm
rain mn
cm
humidity
%
barometer
mb
20260507201559 11 243 6.4 16.1 0.00 0.00 0.00 88 1002.2
20260507200108 11 214 4.8 14.5 0.00 0.00 0.00 91 1002.2
20260507194556 12 232 4.8 16.1 0.00 0.00 0.00 94 1002.2
20260507193058 11 294 6.4 16.1 0.00 0.00 0.00 96 1002.3
20260507191604 11 271 4.8 12.9 0.00 0.00 0.00 97 1002.4
20260507190105 11 201 3.2 14.5 0.00 0.00 0.00 97 1002.2
20260507184601 10 289 6.4 14.5 0.00 0.00 0.00 97 1001.9
20260507183104 -17 353 3.2 12.9 0.00 0.00 0.00 1002.2
20260507181603 -17 293 4.8 17.7 0.00 0.00 0.00 1002.2
20260507180059 -17 296 6.4 16.1 0.00 0.00 0.00 1002.2
20260507174559 -17 329 4.8 11.3 0.00 0.00 0.00 1002.1
20260507173106 -17 353 3.2 14.5 0.00 0.00 0.00 1001.8
20260507171604 -17 299 6.4 25.7 0.00 0.00 0.00 1002.6
20260507164606 -17 260 3.2 8.0 0.00 0.00 0.00 1001.9
20260507163056 -17 173 9.7 19.3 0.00 0.00 0.00 1001.0
20260507161558 -17 154 12.9 20.9 0.00 0.00 0.00 1001.4
20260507160057 -17 170 12.9 19.3 0.00 0.00 0.00 1002.0
20260507154601 -17 142 8.0 17.7 0.00 0.00 0.00 1002.4
20260507153106 -17 105 4.8 8.0 0.00 0.00 0.00 1002.6
20260507151553 -17 144 12.9 19.3 0.00 0.00 0.00 1003.4
20260507150059 -17 180 4.8 12.9 0.00 0.00 0.00 1003.0
20260507144556 -17 109 3.2 6.4 0.00 0.00 0.00 1003.4
20260507143058 -17 129 1.6 4.8 0.00 0.00 0.00 1004.2
20260507141554 -17 0 0.0 4.8 0.00 0.00 0.00 1004.3
20260507140057 -17 258 0.0 6.4 0.00 0.00 0.00 1004.7
20260507134603 -17 161 14.5 25.7 0.00 0.00 0.00 1004.1
20260507133115 -17 223 12.9 27.4 0.00 0.00 0.00 1004.2
20260507131554 -17 203 20.9 33.8 0.00 0.00 0.00 1003.5
20260507130106 -17 183 17.7 37.0 0.00 0.00 0.00 1003.3
20260507124555 -17 198 22.5 35.4 0.00 0.00 0.00 1003.5
20260507123054 -17 214 20.9 37.0 0.00 0.00 0.00 1003.6
20260507121606 -17 148 20.9 43.5 0.00 0.00 0.00 1003.7
20260507120104 -17 177 24.1 45.1 0.00 0.00 0.00 1003.8
20260507114633 -17 181 27.4 38.6 0.00 0.00 0.00 1003.8
20260507113056 -17 190 27.4 43.5 0.00 0.00 0.00 1003.9
20260507111559 -17 151 22.5 41.8 0.00 0.00 0.00 1003.9
20260507110055 -17 170 22.5 40.2 0.00 0.00 0.00 1003.8
20260507104556 -17 151 24.1 37.0 0.00 0.00 0.00 1004.0
20260507103053 -17 138 24.1 38.6 0.00 0.00 0.00 1004.2
20260507101555 -17 184 20.9 48.3 0.00 0.00 0.00 1004.2
20260507100052 -17 146 22.5 53.1 0.00 0.00 0.00 1004.7
20260507094559 -17 154 29.0 51.5 0.00 0.00 0.00 1004.2
20260507093057 -17 144 30.6 59.5 0.00 0.00 0.00 1003.7
20260507091556 -17 194 29.0 56.3 0.00 0.00 0.00 1004.0
20260507090052 -17 140 30.6 54.7 0.00 0.00 0.00 1004.2
20260507084600 -17 196 29.0 54.7 0.00 0.00 0.00 1004.4
20260507083055 -17 146 33.8 51.5 0.00 0.00 0.00 1003.9
20260507081553 -17 128 30.6 56.3 0.00 0.00 0.00 1004.0
20260507080119 -17 169 33.8 49.9 0.00 0.00 0.00 1004.5
20260507074551 -17 107 32.2 51.5 0.00 0.00 0.00 1005.0
20260507073105 -17 141 25.7 53.1 0.00 0.00 0.00 1005.3
20260507071553 -17 180 27.4 49.9 0.00 0.00 0.00 1005.4
20260507070054 -17 189 27.4 43.5 0.00 0.00 0.00 1005.7
20260507064555 -17 173 20.9 40.2 0.00 0.00 0.00 1006.2
20260507063057 -17 176 16.1 37.0 0.00 0.00 0.00 1006.7
20260507061554 -17 183 22.5 38.6 0.00 0.00 0.00 1007.0
20260507060056 -17 166 20.9 29.0 0.00 0.00 0.00 1007.3
20260507054554 -17 192 14.5 40.2 0.00 0.00 0.00 1007.3
20260507053054 -17 139 16.1 30.6 0.00 0.00 0.00 1008.4
20260507051552 -17 146 19.3 32.2 0.00 0.00 0.00 1008.9
20260507050055 -17 135 20.9 30.6 0.00 0.00 0.00 1009.6
20260507044558 -17 158 17.7 29.0 0.00 0.00 0.00 1010.1
20260507043058 -17 150 20.9 33.8 0.00 0.00 0.00 1010.4
20260507041602 -17 180 17.7 32.2 0.00 0.00 0.00 1010.8
20260507040100 -17 128 19.3 33.8 0.00 0.00 0.00 1010.7
20260507034558 -17 184 14.5 32.2 0.00 0.00 0.00 1010.9
20260507033112 -17 144 20.9 32.2 0.00 0.00 0.00 1011.5
20260507031603 -17 116 16.1 32.2 0.00 0.00 0.00 1011.8
20260507030055 -17 139 19.3 33.8 0.00 0.00 0.00 1012.0
20260507024606 -17 163 16.1 25.7 0.00 0.00 0.00 1012.3
20260507023054 -17 149 19.3 30.6 0.00 0.00 0.00 1011.9
20260507021556 -17 176 19.3 32.2 0.00 0.00 0.00 1012.1
20260507020112 -17 175 20.9 32.2 0.00 0.00 0.00 1012.5
20260507014604 -17 111 16.1 38.6 0.00 0.00 0.00 1013.0
20260507013057 -17 171 17.7 33.8 0.00 0.00 0.00 1013.3
20260507011556 -17 163 20.9 37.0 0.00 0.00 0.00 1013.4
20260507010059 -17 164 22.5 41.8 0.00 0.00 0.00 1013.5
20260507004603 -17 213 22.5 41.8 0.00 0.00 0.00 1013.7
20260507003054 -17 130 19.3 40.2 0.00 0.00 0.00 1013.7
20260507001556 -17 189 20.9 37.0 0.00 0.00 0.00 1013.6
20260507000055 -17 146 17.7 41.8 0.00 0.00 0.00 1013.6
20260506234554 -17 131 19.3 51.5 0.00 0.00 0.00 1013.7
20260506233108 -17 143 17.7 43.5 0.00 0.00 0.00 1013.6
20260506231602 -17 220 24.1 45.1 0.00 0.00 0.00 1013.6
20260506230058 17 147 22.5 38.6 0.00 0.00 0.00 74 1013.4
20260506224554 17 175 19.3 38.6 0.00 0.00 0.00 73 1013.5
20260506223103 17 158 20.9 43.5 0.00 0.00 0.00 72 1013.4
20260506221612 17 188 19.3 41.8 0.00 0.00 0.00 70 1013.5
20260506220056 18 136 25.7 49.9 0.00 0.00 0.00 67 1013.5
20260506214555 18 164 20.9 45.1 0.00 0.00 0.00 65 1013.5
20260506213115 18 198 20.9 43.5 0.00 0.00 0.00 65 1013.1
20260506211558 19 172 20.9 41.8 0.00 0.00 0.00 65 1013.2
20260506210054 19 220 19.3 51.5 0.00 0.00 0.00 63 1013.2
20260506204557 20 160 19.3 43.5 0.00 0.00 0.00 61 1013.1
20260506203052 20 189 22.5 45.1 0.00 0.00 0.00 59 1012.9